sat.trackr.live / text

‹ back to catalog

STARLINK-5559

NORAD 56335 · 2023-058U

PAYLOAD ACTIVE UNKNOWN

§ Identity

Operator
Country
US
Launch date
2023-04-27
Launch site
AFWTR
Launch vehicle
Mass (kg)
RCS (m²)

Purposes: comms

External: N2YO · Heavens-Above · Gunter

§ Orbital elements

Epoch: 2026-05-25T00:11:26.919744Z

Period
95.64 min
Inclination
97.4476°
Eccentricity
0.0002580
Mean motion
15.05654981 rev/d
Perigee alt
547.7 km
Apogee alt
551.3 km
Semi-major
6,927.6 km
B*
-7.4515e-5
RAAN
146.1257°
Arg perigee
110.7801°
Mean anomaly
249.3703°
Rev number
16,968

§ Raw data

STARLINK-55591 56335U 23058U   26145.00795046 -.00001134  00000+0 -74515-4 0  99952 56335  97.4476 146.1257 0002580 110.7801 249.3703 15.05654981169682

JSON: /api/v1/satellites/56335 · /tle

For live sub-satellite position, see the globe view (requires WebGL).

§ Visibility from observer

Set your observer location to see the next 7 days of passes ≥ 10°. The values pass through the URL so the page stays shareable.

No JS? Fill the form by hand. The geolocation button needs JavaScript.